CAPE
0 0 0 0 0 0 0 0 0 0 0 0 0 434 348 118 817 575 424 553 260 329 443 795 1356 1712 1953 1842 1984 1964 1705 1949 2027 1753 1334 1128 985 894 754 633 433 282 87 0 0 0 8 24 130
0 0 0 0 0 0 0 0 0 0 0 0 0 123 365 20 23 63 2 375 553 581 521 397 1384 1849 2005 1997 1949 1887 1606 1418 1516 1429 1283 1086 811 647 420 310 173 60 1 0 0 2 11 11 7
0 0 0 0 0 0 0 0 0 0 0 0 0 8 0 0 0 0 0 622 787 688 500 306 1540 1759 2112 2036 1736 1445 1194 1317 1260 1058 878 604 506 537 343 202 76 1 0 0 0 2 7 4 7
0 0 0 0 0 0 0 0 0 0 0 0 0 0 0 0 0 0 514 800 689 698 589 916 1851 2206 1925 2069 1906 1360 1186 1022 942 885 650 495 110 212 292 109 6 0 0 0 0 0 4 127 137
0 0 0 0 0 0 0 0 0 0 0 0 0 0 0 0 0 0 260 832 787 675 631 1037 2075 2088 1792 1633 1399 1503 1088 876 698 412 181 88 45 7 167 16 4 0 2 3 1 0 51 26 174
0 0 0 0 0 0 0 0 0 0 0 0 0 0 0 0 0 0 0 428 878 893 643 1008 1921 1975 1581 1464 1218 1071 924 630 347 141 97 55 14 22 12 7 7 3 3 10 14 25 27 98 62
0 0 0 0 0 0 0 0 0 0 0 0 0 0 0 0 0 0 0 0 812 936 652 1042 1650 1539 1314 1352 1086 1087 915 533 296 45 11 21 36 15 14 12 9 10 8 40 24 39 41 58 5
0 0 0 0 0 0 0 0 0 0 0 0 0 0 0 0 0 0 0 0 0 780 704 1152 1198 1268 997 824 888 691 536 349 180 5 23 10 25 20 7 21 16 17 37 36 32 47 42 26 5
0 0 0 0 0 0 0 0 0 0 0 0 0 0 0 0 0 0 0 0 0 0 631 502 846 893 735 517 423 266 147 58 50 17 16 12 0 1 7 1 18 26 24 16 42 39 27 26 7
0 0 0 0 0 0 0 0 0 0 0 0 0 0 0 0 0 0 0 0 0 0 0 117 678 511 314 264 100 32 5 0 0 2 0 0 0 0 0 0 15 29 37 54 42 25 4 0 0
0 0 0 0 0 0 0 0 0 0 0 0 0 0 0 0 0 0 0 0 0 0 0 0 250 247 87 187 11 6 0 0 0 0 0 0 0 0 0 0 2 4 10 5 3 2 0 0 0
0 0 0 0 0 0 0 0 0 0 0 0 0 0 0 0 0 0 0 0 0 0 0 0 0 348 119 94 18 0 0 0 0 0 0 0 0 0 0 0 0 0 0 0 0 0 0 0 0
0 0 0 0 0 0 0 0 0 0 0 0 0 0 0 0 0 0 0 0 0 0 0 0 0 78 275 23 10 0 0 0 0 0 0 0 0 0 0 0 0 0 0 0 0 0 0 0 0
0 0 0 0 0 0 0 0 0 0 0 0 0 0 0 0 0 0 0 0 0 0 0 0 0 0 93 55 26 1 0 0 0 0 0 0 0 0 0 0 0 0 0 0 0 0 0 0 0
0 0 0 0 0 0 0 0 0 0 0 0 0 0 0 0 0 0 0 0 0 0 0 0 0 0 32 96 15 13 1 0 0 0 0 0 0 0 0 0 0 0 0 0 0 0 0 0 0
0 0 0 0 0 0 0 0 0 0 0 0 0 0 0 0 0 0 0 0 0 0 0 0 0 0 0 4 0 13 0 1 0 0 0 0 0 0 0 0 0 0 0 0 0 0 0 0 0
0 0 0 0 0 0 0 0 0 0 0 0 0 0 0 0 0 0 0 0 0 0 0 0 0 0 0 1 0 19 1 0 1 0 0 0 0 0 0 0 0 0 0 0 0 0 0 0 0
0 0 0 0 0 0 0 0 0 0 0 0 0 0 0 0 0 0 0 0 0 0 0 0 0 0 0 0 4 0 0 1 0 0 0 0 0 0 0 0 0 0 0 0 0 0 0 0 0
0 0 0 0 0 0 0 0 0 0 0 0 0 0 0 0 0 0 0 0 0 0 0 0 0 0 0 2 0 0 0 0 0 0 0 0 0 0 0 0 0 0 0 0 0 0 0 0 0
0 0 0 0 0 0 0 0 0 0 0 0 0 0 0 0 0 0 0 0 0 0 0 0 0 0 0 36 0 0 0 0 0 0 0 0 0 0 0 0 0 0 0 0 0 0 0 0 0
0 0 0 0 0 0 0 0 0 0 0 0 0 0 0 0 0 0 0 0 0 0 0 0 0 0 0 15 0 0 0 0 0 0 0 0 0 0 0 0 0 0 0 0 0 0 0 0 0
0 0 0 0 0 0 0 0 0 0 0 0 0 0 0 0 0 0 0 0 0 0 0 0 0 0 0 0 0 0 0 0 0 0 0 0 0 0 0 0 0 0 0 0 0 0 0 0 0
0 0 0 0 0 0 0 0 0 0 0 0 0 0 0 0 0 0 0 0 0 0 0 0 0 0 0 0 0 0 0 0 0 0 0 0 0 0 0 0 0 0 0 0 0 0 0 0 0
0 0 0 0 0 0 0 0 0 0 0 0 0 0 0 0 0 0 0 0 0 0 0 0 0 0 1 0 0 0 0 0 0 0 0 0 0 0 0 0 0 0 0 0 0 0 0 0 0
0 0 0 0 0 0 0 0 0 0 0 0 0 0 0 0 0 0 0 0 0 4 0 0 9 1 0 0 0 0 0 0 0 0 0 0 0 0 0 0 0 0 0 0 0 0 0 0 0
0 0 0 0 0 0 0 0 0 0 0 0 0 0 0 0 0 0 0 0 11 10 3 0 7 11 0 0 1 0 0 0 0 0 0 0 0 0 0 0 0 0 0 0 0 0 0 0 0
0 0 0 0 0 0 0 0 0 0 0 0 0 0 0 0 0 0 0 0 2 8 7 2 1 7 7 0 1 1 0 0 0 0 0 0 0 0 0 0 0 0 0 0 0 0 0 0 0
0 0 0 0 0 0 0 0 0 0 0 0 0 0 0 0 0 0 0 0 0 0 0 0 0 12 10 5 1 0 0 0 0 0 0 0 1 1 0 0 0 0 0 0 0 0 0 0 0
0 0 0 0 0 0 0 0 0 0 0 0 0 0 0 0 0 0 0 0 0 0 0 0 0 10 2 1 0 1 0 0 0 0 2 1 1 0 0 0 0 0 0 0 0 0 0 0 0
0 0 0 0 0 0 0 0 0 0 0 0 0 0 0 0 0 0 0 0 0 0 0 0 0 1 5 0 0 0 0 1 1 3 8 0 0 0 0 0 0 0 0 0 0 0 0 0 0
CIN
0 0 0 0 0 0 0 0 0 0 0 0 0 -239 -292 -317 -161 -152 -236 -197 -330 -244 -160 -40 -2 0 0 0 0 0 0 0 0 0 0 0 -1 -10 -23 -34 -68 -107 -247 0 0 0 0 0 -202
0 0 0 0 0 0 0 0 0 0 0 0 0 -199 -265 -269 -19 -181 -181 -236 -208 -176 -146 -152 -2 0 0 0 0 0 0 -1 0 0 0 0 -5 -30 -62 -114 -210 -325 0 0 0 0 0 0 0
0 0 0 0 0 0 0 0 0 0 0 0 0 -117 0 0 0 0 0 -207 -126 -141 -158 -190 -3 -4 0 -1 -1 0 -1 -3 -1 0 -3 -18 -47 -56 -109 -201 -340 0 0 0 0 0 0 0 0
0 0 0 0 0 0 0 0 0 0 0 0 0 0 0 0 0 0 -177 -172 -182 -145 -155 -63 -3 -1 -1 -2 -1 -2 0 -1 -4 -1 -32 -61 -267 -193 -172 -328 -8 0 0 0 0 0 0 -287 -269
0 0 0 0 0 0 0 0 0 0 0 0 0 0 0 0 0 0 -244 -111 -155 -151 -143 -56 -2 -2 -3 -7 -12 -4 -4 -5 -15 -79 -175 -278 -388 0 -284 -298 0 0 0 0 0 0 -390 -315 -274
0 0 0 0 0 0 0 0 0 0 0 0 0 0 0 0 0 0 0 -181 -101 -86 -117 -49 -2 -2 -6 -9 -20 -8 -8 -17 -88 -212 -265 -372 -258 -363 -3 -2 0 0 0 0 0 0 -3 -231 -172
0 0 0 0 0 0 0 0 0 0 0 0 0 0 0 0 0 0 0 0 -88 -103 -111 -37 -2 -25 -16 -14 -19 -20 -13 -44 -121 -379 -7 -329 -290 -1 -2 0 0 0 0 -380 0 -1 -61 -274 -15
0 0 0 0 0 0 0 0 0 0 0 0 0 0 0 0 0 0 0 0 0 -78 -79 -28 -24 -30 -45 -43 -25 -42 -47 -89 -190 -1 -3 -4 -8 -4 0 0 0 0 0 0 -1 -2 0 -11 -28
0 0 0 0 0 0 0 0 0 0 0 0 0 0 0 0 0 0 0 0 0 0 -84 -90 -53 -45 -41 -89 -102 -140 -175 -266 -350 -7 -28 -26 0 -1 -5 -12 -2 0 -1 0 -2 -4 -4 -13 -42
0 0 0 0 0 0 0 0 0 0 0 0 0 0 0 0 0 0 0 0 0 0 0 -198 -47 -75 -104 -97 -202 -305 -398 0 0 -16 -14 0 0 0 0 0 -8 -3 -3 -1 -1 -3 -23 0 0
0 0 0 0 0 0 0 0 0 0 0 0 0 0 0 0 0 0 0 0 0 0 0 0 -83 -95 -169 -100 -220 -301 -8 0 0 0 0 0 0 0 0 0 -20 -28 -17 -16 -20 -1 0 0 0
0 0 0 0 0 0 0 0 0 0 0 0 0 0 0 0 0 0 0 0 0 0 0 0 0 -32 -87 -103 -180 -93 0 0 0 0 0 0 0 0 0 0 0 0 0 0 0 0 0 0 0
0 0 0 0 0 0 0 0 0 0 0 0 0 0 0 0 0 0 0 0 0 0 0 0 0 -140 -28 -112 -94 0 0 0 0 0 0 0 0 0 0 0 0 0 0 0 0 0 0 0 0
0 0 0 0 0 0 0 0 0 0 0 0 0 0 0 0 0 0 0 0 0 0 0 0 0 0 -75 -80 -108 -5 0 0 0 0 0 0 0 0 0 0 0 0 0 0 0 0 0 0 0
0 0 0 0 0 0 0 0 0 0 0 0 0 0 0 0 0 0 0 0 0 0 0 0 0 0 -116 -59 -118 -146 0 0 0 0 0 0 0 0 0 0 0 0 0 0 0 0 0 0 0
0 0 0 0 0 0 0 0 0 0 0 0 0 0 0 0 0 0 0 0 0 0 0 0 0 0 0 -6 0 -34 0 0 0 0 0 0 0 0 0 0 0 0 0 0 0 0 0 0 0
0 0 0 0 0 0 0 0 0 0 0 0 0 0 0 0 0 0 0 0 0 0 0 0 0 0 0 0 0 -45 0 0 0 0 0 0 0 0 0 0 0 0 0 0 0 0 0 0 0
0 0 0 0 0 0 0 0 0 0 0 0 0 0 0 0 0 0 0 0 0 0 0 0 0 0 0 0 -14 0 0 0 0 0 0 0 0 0 0 0 0 0 0 0 0 0 0 0 0
0 0 0 0 0 0 0 0 0 0 0 0 0 0 0 0 0 0 0 0 0 0 0 0 0 0 0 0 0 0 0 0 0 0 0 0 0 0 0 0 0 0 0 0 0 0 0 0 0
0 0 0 0 0 0 0 0 0 0 0 0 0 0 0 0 0 0 0 0 0 0 0 0 0 0 0 -33 0 0 0 0 0 0 0 0 0 0 0 0 0 0 0 0 0 0 0 0 0
0 0 0 0 0 0 0 0 0 0 0 0 0 0 0 0 0 0 0 0 0 0 0 0 0 0 0 -132 0 0 0 0 0 0 0 0 0 0 0 0 0 0 0 0 0 0 0 0 0
0 0 0 0 0 0 0 0 0 0 0 0 0 0 0 0 0 0 0 0 0 0 0 0 0 0 0 0 0 0 0 0 0 0 0 0 0 0 0 0 0 0 0 0 0 0 0 0 0
0 0 0 0 0 0 0 0 0 0 0 0 0 0 0 0 0 0 0 0 0 0 0 0 0 0 0 0 0 0 0 0 0 0 0 0 0 0 0 0 0 0 0 0 0 0 0 0 0
0 0 0 0 0 0 0 0 0 0 0 0 0 0 0 0 0 0 0 0 0 0 0 0 -8 0 -1 -2 0 0 0 0 0 0 0 0 0 0 0 0 0 0 0 0 0 0 0 0 0
0 0 0 0 0 0 0 0 0 0 0 0 0 0 0 0 0 0 0 0 0 -13 0 0 -191 -39 -8 0 0 0 0 0 0 0 0 0 0 0 0 0 0 0 0 0 0 0 0 0 0
0 0 0 0 0 0 0 0 0 0 0 0 0 0 0 0 0 0 0 0 -24 -35 -40 0 -59 -36 -9 0 0 0 0 0 0 0 0 0 0 0 0 0 0 0 0 0 0 0 0 0 0
0 0 0 0 0 0 0 0 0 0 0 0 0 0 0 0 0 0 0 0 -33 -35 -43 -30 -6 -36 -49 0 0 0 0 0 0 0 0 0 0 -5 0 0 0 0 0 0 0 0 0 0 0
0 0 0 0 0 0 0 0 0 0 0 0 0 0 0 0 0 0 0 0 0 0 -35 0 -4 -18 -31 -43 -15 0 0 0 0 0 0 -1 -1 -2 0 0 0 0 0 0 0 0 0 0 0
0 0 0 0 0 0 0 0 0 0 0 0 0 0 0 0 0 0 0 0 0 0 0 0 0 -18 -38 -18 -19 -65 0 0 0 -1 -1 0 0 0 0 0 0 0 0 0 0 0 0 0 0
0 0 0 0 0 0 0 0 0 0 0 0 0 0 0 0 0 0 0 0 0 0 0 0 0 -1 -33 -4 0 0 0 0 0 0 0 0 0 0 0 0 0 0 0 0 0 0 0 0 0
Wind_Speed
8 6 2 5 6 5 2 3 2 6 7 2 6 5 8 8 5 8 4 7 8 13 10 12 15 13 14 15 14 13 12 12 15 16 18 17 16 16 15 14 14 14 13 13 13 13 13 14 14
5 3 5 3 6 4 4 4 4 4 5 5 2 1 7 5 5 2 4 6 8 10 10 9 15 15 13 15 14 12 13 14 15 16 17 17 17 16 13 13 13 13 12 12 13 13 14 13 13
4 2 5 5 4 4 4 3 5 6 5 7 3 5 4 3 3 3 6 3 10 12 10 9 14 14 15 17 16 15 13 14 15 15 15 14 15 16 14 13 12 12 13 13 13 13 13 13 13
2 5 5 5 3 3 3 4 4 7 8 9 2 6 4 3 2 4 6 5 7 11 10 12 15 15 14 19 18 16 14 12 12 12 12 10 13 14 14 14 13 12 13 13 13 14 14 12 13
4 4 5 4 3 1 3 4 4 5 4 6 7 3 3 5 4 4 5 7 6 5 8 10 17 16 15 17 15 16 15 13 12 11 12 13 13 12 15 14 13 14 14 15 15 16 16 14 12
5 3 5 3 3 1 2 5 2 4 4 7 6 3 1 3 5 5 6 7 4 8 9 11 14 16 15 16 19 14 14 12 13 12 12 13 13 13 12 12 13 14 16 16 17 16 17 15 14
6 4 3 4 4 2 4 5 4 2 2 4 1 2 2 4 4 5 6 7 6 5 7 9 11 14 14 15 16 19 15 14 12 12 13 12 12 13 13 13 13 14 16 15 15 14 18 13 11
5 4 4 5 1 2 6 5 2 5 2 4 1 2 4 2 3 4 7 7 7 5 4 3 7 11 12 13 16 16 17 15 13 13 12 11 10 11 13 12 13 14 14 15 15 15 15 12 11
3 6 2 2 2 2 4 5 5 4 2 5 3 2 3 1 3 7 6 7 6 5 3 1 3 5 7 11 13 16 17 15 13 11 11 10 5 7 8 7 10 13 13 14 15 16 12 9 12
5 5 1 1 1 2 2 2 4 4 7 4 4 4 4 3 4 4 5 5 5 5 3 4 3 6 5 5 10 10 10 9 8 7 9 6 5 5 5 5 9 11 12 12 14 14 10 9 4
1 4 3 2 3 1 2 6 1 3 5 6 5 7 7 2 3 2 2 2 3 2 1 1 4 4 5 5 4 5 6 5 7 10 9 8 5 4 4 2 3 3 9 6 6 5 3 6 4
5 2 2 1 1 2 2 2 3 4 8 7 8 7 5 5 6 6 5 5 5 6 5 3 2 5 6 4 7 5 5 8 7 9 11 9 5 5 4 3 4 3 3 6 5 3 4 6 6
2 0 3 2 6 4 2 5 5 7 9 9 9 6 8 7 6 6 7 7 6 6 6 5 3 4 5 5 4 5 7 6 8 8 10 9 8 7 5 4 4 4 3 5 5 5 4 5 7
2 4 5 4 3 3 2 4 2 5 2 6 4 7 7 7 7 4 4 6 5 6 8 5 6 5 5 6 8 5 6 6 5 8 10 13 10 9 8 6 5 5 4 4 4 5 4 4 7
3 6 6 2 1 3 3 1 4 3 4 6 7 7 6 6 3 3 3 2 3 4 5 7 6 5 6 7 5 5 6 5 6 8 10 12 11 11 11 8 6 6 5 6 4 2 4 5 6
5 4 6 5 2 2 4 8 6 5 5 8 9 6 3 4 5 4 4 4 6 5 6 8 5 5 6 9 6 5 6 3 6 5 6 7 10 11 9 9 8 5 5 5 4 4 5 6 8
7 2 4 9 5 3 2 9 7 7 6 9 8 4 3 3 3 3 3 4 5 5 7 7 8 7 7 9 5 5 5 5 0 4 8 11 9 8 8 8 7 6 5 5 5 2 7 7 7
2 2 4 5 5 5 7 18 12 8 6 9 6 6 4 5 2 0 1 2 4 6 6 6 5 7 7 3 3 4 3 2 6 5 4 14 10 10 8 4 7 7 6 4 4 6 3 6 8
2 3 5 6 4 6 5 13 17 12 5 6 6 6 6 5 2 4 2 4 6 4 7 7 7 7 3 6 4 3 4 2 1 5 10 9 10 12 4 5 6 4 7 7 7 5 10 4 9
2 3 6 6 3 4 6 16 11 4 4 7 8 7 6 2 5 6 6 4 6 7 7 7 7 7 5 6 3 3 3 2 2 5 8 8 13 11 14 7 6 8 6 7 8 10 4 3 3
3 3 2 5 7 3 8 7 5 3 2 2 4 2 2 5 6 7 5 6 6 7 8 8 8 8 6 8 6 5 6 4 3 6 8 8 11 11 10 13 12 10 7 7 7 9 9 10 1
4 1 3 6 5 3 4 6 6 3 3 4 3 3 5 7 6 4 4 7 7 7 7 8 8 7 5 11 8 10 7 7 4 7 7 8 11 10 10 8 5 2 7 7 6 7 7 7 9
6 2 4 2 2 4 2 3 9 3 2 1 6 6 4 5 5 4 6 7 8 6 7 7 8 6 7 9 8 9 7 4 7 6 9 10 9 11 13 13 12 11 8 9 8 5 7 8 6
4 3 4 3 3 3 4 4 7 3 4 3 1 4 3 6 6 4 6 7 7 6 8 8 7 4 6 7 8 10 12 10 9 7 8 8 9 7 10 11 9 9 7 7 8 7 6 4 5
6 6 5 7 5 5 3 2 10 4 1 5 2 3 5 5 4 5 6 7 7 8 8 7 6 2 5 7 9 9 11 13 17 14 10 10 9 8 9 9 10 9 11 9 9 8 7 5 6
1 4 7 5 2 5 5 7 6 2 4 1 0 3 5 6 5 7 7 7 6 8 8 8 7 4 6 8 9 9 10 7 9 12 11 10 10 10 14 12 9 9 9 8 8 7 5 6 5
1 1 3 2 2 2 4 8 7 5 3 3 4 4 6 7 7 8 8 8 8 8 10 9 10 4 6 7 7 7 8 8 9 11 10 9 8 7 8 8 6 7 7 9 8 7 7 8 6
2 0 2 2 2 5 5 7 7 5 2 5 7 6 6 5 6 6 6 7 7 8 9 10 10 6 5 7 8 8 10 10 9 10 12 11 10 10 10 10 9 8 8 8 10 9 8 10 6
1 2 2 2 4 4 3 7 6 5 2 5 7 6 6 5 5 6 6 6 7 6 7 9 9 7 6 6 6 7 8 9 10 10 10 11 9 11 11 10 10 10 11 8 9 10 11 12 9
3 4 5 4 6 3 2 8 4 7 2 5 6 6 6 5 6 5 6 7 7 9 9 9 10 9 7 6 6 7 8 9 10 10 10 11 12 11 11 10 10 10 10 10 11 11 9 11 10
Wind_Direction
333 319 73 46 66 66 260 296 254 358 360 307 296 86 104 38 39 124 151 352 124 155 161 164 163 170 165 160 150 149 155 150 144 140 133 129 128 124 121 119 123 127 126 126 128 133 133 126 124
344 340 44 85 89 89 268 324 357 327 301 325 91 17 35 69 9 29 91 12 135 150 158 167 171 175 157 150 149 155 164 155 148 145 137 134 130 119 124 128 129 126 127 128 132 137 136 133 132
323 83 84 98 110 154 180 302 300 305 355 15 45 55 55 5 319 354 349 340 176 164 167 171 173 165 157 150 145 140 140 145 140 137 135 133 120 127 137 132 131 131 130 133 137 140 140 139 134
32 14 34 85 140 335 160 308 304 346 349 19 351 56 52 294 40 337 340 5 152 163 164 177 173 175 175 150 147 145 141 142 134 130 127 132 147 139 137 132 132 136 138 139 144 146 147 140 138
36 54 64 81 75 197 348 323 25 33 14 327 349 37 76 321 300 33 28 31 106 149 171 184 177 179 173 151 143 145 141 141 137 146 158 152 158 155 139 133 149 148 145 152 148 151 148 136 138
40 84 62 98 130 241 327 343 40 27 358 328 41 46 257 274 319 15 44 29 49 179 184 189 182 172 170 161 155 153 147 150 164 167 166 163 160 152 146 156 159 156 154 153 153 157 129 141 122
104 78 165 117 149 45 352 317 43 25 11 333 231 87 243 310 306 13 42 32 19 55 163 186 189 169 165 156 159 148 149 153 161 173 177 171 166 161 156 162 166 162 164 153 152 145 137 132 121
99 90 53 12 68 93 337 348 323 48 291 300 178 148 256 274 330 10 36 32 29 36 51 231 205 175 168 161 157 152 151 154 162 180 175 173 135 157 169 164 170 165 171 149 146 142 135 133 101
94 61 60 23 53 225 336 6 311 289 341 332 307 60 305 175 6 22 20 10 3 8 24 305 217 173 184 169 166 156 155 156 165 176 137 139 154 164 152 164 179 172 171 166 144 135 142 114 101
75 87 134 333 173 236 278 28 305 2 340 293 309 333 32 17 21 47 25 358 348 342 2 331 247 185 178 196 170 161 163 164 152 143 145 142 132 146 151 175 182 173 159 145 145 146 143 104 86
78 139 188 200 169 219 310 326 308 319 309 239 282 288 321 98 1 360 354 292 266 279 267 257 254 225 193 175 213 173 164 160 152 153 147 137 144 154 145 175 171 161 140 145 121 131 101 109 112
95 55 126 230 342 322 266 242 288 221 239 254 280 279 282 329 332 309 284 278 296 292 273 260 267 194 203 206 180 192 191 167 165 170 152 145 154 154 158 154 158 136 127 124 129 130 123 109 118
66 280 309 295 293 261 277 253 236 258 257 272 273 265 268 293 281 284 278 284 270 272 268 269 257 211 199 179 200 190 181 195 170 172 159 153 163 162 156 158 146 146 124 145 144 145 130 117 120
317 292 270 272 252 274 295 276 173 277 304 348 297 267 268 265 273 288 279 280 285 284 282 274 251 220 197 196 179 214 186 210 193 178 173 164 166 163 163 160 157 148 155 146 148 156 140 131 125
345 355 336 258 250 276 313 191 211 250 3 323 316 276 324 298 293 268 267 295 327 310 300 287 268 249 208 219 200 173 230 198 187 175 190 172 171 169 166 161 163 162 155 150 138 130 101 111 124
15 47 14 328 7 334 40 271 257 251 2 314 314 307 2 74 85 55 22 31 5 2 342 316 311 259 217 219 205 190 166 211 175 197 137 182 173 173 173 165 168 162 146 143 149 140 108 123 131
17 340 346 326 15 332 352 277 253 299 299 298 294 263 154 124 108 115 78 54 28 19 358 337 324 283 239 218 198 181 170 135 296 160 160 166 171 176 180 174 162 151 143 139 152 127 132 125 125
278 347 315 261 304 348 279 270 291 279 264 266 267 199 200 183 158 278 165 60 32 2 351 325 307 290 256 225 171 96 82 123 150 129 151 162 153 152 191 178 153 146 138 139 134 132 86 125 128
184 218 264 255 269 343 261 284 289 295 251 275 215 205 216 202 256 281 297 37 11 356 325 315 308 299 218 207 172 131 139 140 143 150 154 153 132 121 148 139 128 140 151 153 150 108 125 80 124
261 287 289 284 305 326 307 292 287 287 222 204 203 221 221 230 293 295 322 8 344 319 305 304 292 286 233 214 156 138 134 139 156 157 153 169 153 166 142 150 170 143 126 143 153 141 122 107 186
288 237 276 268 318 271 317 308 330 317 242 202 216 212 188 227 283 320 338 334 324 316 305 297 282 276 241 208 116 92 82 82 112 167 151 156 155 154 157 177 176 152 140 165 167 156 151 160 184
297 324 312 297 23 288 58 275 303 319 308 313 281 325 335 340 327 301 323 317 311 298 288 289 284 277 217 166 169 156 169 163 175 184 169 158 167 169 145 149 136 81 146 160 172 174 158 149 162
243 315 277 261 254 29 297 67 270 311 219 279 53 38 341 293 281 301 320 306 295 294 309 294 290 279 195 181 185 163 164 171 150 157 177 167 162 168 168 167 172 172 190 175 162 165 164 168 155
305 335 33 55 83 354 249 127 282 202 201 128 103 249 329 341 330 324 313 296 297 311 330 320 312 266 196 182 180 169 166 155 151 159 176 175 168 171 179 173 186 162 171 177 160 155 145 134 121
45 46 336 354 11 231 328 11 246 271 322 159 217 326 310 305 319 315 319 323 317 335 327 320 320 242 174 185 183 182 183 177 169 168 178 174 174 175 173 180 183 185 176 163 148 140 135 143 151
341 133 149 238 249 276 334 247 261 273 150 204 239 270 294 330 315 304 312 317 331 334 323 315 310 236 198 196 196 185 181 188 180 179 177 181 189 184 175 173 170 162 158 150 150 140 132 127 117
281 205 174 113 193 70 243 282 295 244 242 334 291 323 329 319 311 333 349 344 338 340 329 323 314 236 210 198 186 179 173 179 183 180 185 190 178 190 181 148 136 135 138 134 130 124 116 107 105
186 249 34 23 302 270 292 283 238 264 301 327 323 322 310 312 342 332 331 334 334 332 322 323 321 255 214 192 188 183 179 183 183 178 182 184 169 161 143 139 140 122 116 119 116 108 108 111 101
130 245 229 172 159 213 279 262 223 244 192 293 302 294 281 291 306 313 317 320 318 311 320 317 313 271 220 198 184 177 181 182 176 178 181 175 151 141 132 125 118 113 107 103 110 114 123 115 116
201 220 169 132 267 223 182 264 275 242 161 326 291 289 277 262 287 313 325 322 326 328 326 316 314 314 228 210 183 176 162 168 170 176 173 140 129 122 111 113 106 109 114 118 118 115 108 113 112